Regional Weather Roundup
Issued by NWS

Home | Current Version | Previous Version | Graphics & Text | Print | Product List | Glossary On
Versions: 1 2 3 4 5 6 7 8 9 10 11 12 13 14 15 16 17 18 19 20 21 22 23 24 25 26 27 28 29 30 31 32 33 34 35 36 37 38 39 40 41 42 43 44 45 46 47 48 49 50
000
ASUS43 KMPX 230401
RWRMN
WEATHER ROUNDUP FOR MINNESOTA
NATIONAL WEATHER SERVICE TWIN CITIES/CHANHASSEN MN
1100 PM CDT FRI AUG 22 2014


NOTE: "FAIR" INDICATES FEW OR NO CLOUDS BELOW 12,000 FEET WITH NO
SIGNIFICANT WEATHER AND/OR OBSTRUCTIONS TO VISIBILITY. N/A MEANS
CURRENT SKY AND/OR WEATHER CONDITIONS ARE NOT AVAILABLE.

MNZ060>063-068>070-230500-
   Twin Cities Metro

CITY           SKY/WX    TMP DP  RH WIND       PRES   REMARKS
TWIN CITIES    PTCLDY    71  68  90 N6        30.01F
ST PAUL        CLOUDY    73  68  84 N5        30.01F
CRYSTAL        CLEAR     68  65  90 CALM      30.01F
BLAINE         CLEAR     68  66  94 CALM      30.02F
LAKEVILLE      PTCLDY    70  66  88 NE5       30.02S
EDEN PRAIRIE   CLEAR     71  67  87 NE3       30.00F
SOUTH ST PAUL  MOCLDY    74  67  81 N5        30.01F
LAKE ELMO      CLOUDY    72  70  94 CALM      30.03F
$$
MNZ001>005-007-008-013>017-022>024-027-028-230500-
   Northwest Minnesota

CITY           SKY/WX    TMP DP  RH WIND       PRES   REMARKS
BEMIDJI        CLOUDY    67  67  99 CALM      30.06R
HALLOCK        CLOUDY    64  61  88 N8        30.09R
ROSEAU         MOCLDY    66  61  82 N5        30.08S
WARROAD        MOCLDY    66  63  88 N6        30.08S
THIEF RVR FALL CLOUDY    66  64  94 N15       30.07R
CROOKSTON      CLOUDY    66  64  94 N13       30.08R
FOSSTON        CLOUDY    64  64 100 CALM      30.06R
DETROIT LAKES  CLOUDY    68  66  94 N5        30.06F
MOORHEAD       CLOUDY    68  68 100 N8        30.06S
PARK RAPIDS    FOG       66  66 100 CALM      30.05S VSB 1/4
MAHNOMEN       CLOUDY    67  66  95 N5        30.05S
$$
MNZ006-009>011-018-025>026-230500-
   North Central Minnesota

CITY           SKY/WX    TMP DP  RH WIND       PRES   REMARKS
BAUDETTE       CLEAR     64  62  93 CALM      30.07R
FLAG ISLAND    CLOUDY    68  64  88 NW8       30.07R
INTL FALLS     PTCLDY    67  65  93 NE3       30.06S
WASKISH        CLOUDY    70  66  88 CALM      30.07R
BIG FORK       DRIZZLE   70  66  88 NE5       30.07R
LONGVILLE      FOG       66  66 100 CALM      30.05R VSB 1/2
GRAND RAPIDS   CLOUDY    68  64  88 S6        30.06S
CRANE LAKE     MOCLDY    59  59 100 CALM      30.09R FOG
ORR            CLOUDY    66  63  88 CALM      30.05R
COOK           CLOUDY    68  64  88 CALM      30.07S
WALKER         CLOUDY    64  64  99 N3        30.05S FOG
$$
MNZ012-019>021-037-230500-
   Northeast Minnesota

CITY           SKY/WX    TMP DP  RH WIND       PRES   REMARKS
DULUTH         FOG       62  60  93 E6        30.07S VSB 1/2
ELY            CLOUDY    66  63  88 CALM      30.08R
HIBBING        CLOUDY    70  66  87 S5        30.07R
EVELETH        RAIN      64  63  94 CALM      30.09
DULUTH HARBOR  CLOUDY    63  61  94 N7        30.07S
TWO HARBORS    CLOUDY    63  57  82 CALM      30.06R
SILVER BAY     PTCLDY    63  63 100 CALM      30.06R
GRAND MARAIS     N/A     62  61  96 CALM      30.05R
G MARAIS ARPRT CLOUDY    61  57  88 CALM      30.10S
$$
MNZ029>031-032-039>041-046>048-054>057-064-230500-
   West Central Minnesota

CITY           SKY/WX    TMP DP  RH WIND       PRES   REMARKS
FERGUS FALLS   CLEAR     66  64  94 N3        30.04F
WHEATON        PTCLDY    64  64 100 N5        30.05R
MORRIS         MOCLDY    72  70  94 NE6       30.01F
ALEXANDRIA     PTCLDY    72  68  87 NE9       30.05S
ELBOW LAKE     FAIR      68  66  93 N3        30.03F
WADENA         PTCLDY    66  64  94 CALM      30.04F
GLENWOOD       PTCLDY    72  70  94 NE5       30.04F
APPLETON       MOCLDY    73  68  83 NE7       30.00S
BENSON         CLOUDY    73  70  88 NE3       30.01S
ORTONVILLE     MOCLDY    72  66  83 NE8       30.01S
MADISON        CLOUDY    75  72  88 NE7       30.01S
WILLMAR        FAIR      73  68  83 E6        30.02S
$$
MNZ033>034-036-042>043-049>051-058-059-230500-
   Central Minnesota

CITY           SKY/WX    TMP DP  RH WIND       PRES   REMARKS
ST CLOUD       CLEAR     70  67  90 NE3       30.02F
SAUK CENTRE    CLOUDY    71  68  90 CALM      30.04S
PAYNESVILLE    PTCLDY    68  66  93 N3        30.03F
AITKIN         CLEAR     66  63  88 CALM      30.05S
PINE RIVER     MOCLDY    68  68 100 CALM      30.08S
BRAINERD       CLEAR     66  65  96 CALM      30.05S
STAPLES        CLEAR     68  66  94 CALM      30.04F
LONG PRAIRIE   FAIR      68  66  94 CALM      30.05S
LITTLE FALLS   CLEAR     66  64  94 CALM      30.04S
LITCHFIELD     PTCLDY    72  72 100 E5        30.02F
BUFFALO        CLEAR     68  65  91 NE3       30.03F
MAPLE LAKE     CLEAR     69  68  97 CALM      30.03F
$$
MNZ037-044-045-052-053-230500-
   East Central Minnesota

CITY           SKY/WX    TMP DP  RH WIND       PRES   REMARKS
PRINCETON      MOCLDY    72  68  88 NE5       30.03F
MORA           PTCLDY    64  63  94 E3        30.06F
CAMBRIDGE      CLEAR     70  61  73 CALM      30.02F
RUSH CITY      CLOUDY    68  65  90 CALM      30.04F
MOOSE LAKE     CLOUDY    63  61  94 NE3       30.05S
HINCKLEY       CLOUDY    66  64  94 N3        30.06S
CLOQUET        CLOUDY    61  59  94 CALM      30.08S FOG
MCGREGOR       PTCLDY    63  63 100 CALM      30.07R
$$
MNZ071>073-080-081-089-090-097-098-230500-
   Southwest Minnesota

CITY           SKY/WX    TMP DP  RH WIND       PRES   REMARKS
MONTEVIDEO     CLOUDY    73  72  94 NE6       30.02R
GRANITE FALLS  CLOUDY    75  71  87 E5        30.01S
CANBY          CLOUDY    73  70  89 N3        30.03R
MARSHALL       CLOUDY    77  68  73 SE7       30.00R
REDWOOD FALLS  MOCLDY    74  70  87 SE6       30.00S
OLIVIA         CLOUDY    73  68  83 E6        30.01R
PIPESTONE      MOCLDY    73  70  88 SE5       30.02S
WINDOM         PTCLDY    72  68  88 NE3       30.02S
WORTHINGTON      N/A     70  68  94 NE5       30.03F
JACKSON        MOCLDY    70  66  88 E5        30.02F
TRACY          CLOUDY    74  71  88 SE3       30.01S
SLAYTON        MOCLDY    73  70  91 CALM      30.03F
$$
MNZ065>067-074>077-082>085-091>093-230500-
   South Central Minnesota

CITY           SKY/WX    TMP DP  RH WIND       PRES   REMARKS
MANKATO        CLEAR     72  64  78 E6        30.01S
NEW ULM        PTCLDY    72  70  94 E7        30.01S
ST JAMES       PTCLDY    72  68  88 E3        30.02S
FAIRMONT       MOCLDY    66  64  94 E7        30.00F
GLENCOE        CLEAR     71  67  89 CALM      30.01F
FARIBAULT      PTCLDY    72  64  78 CALM      30.02S
OWATONNA       PTCLDY    70  66  88 CALM      30.02S
WASECA         PTCLDY    72  64  78 NE6       30.03S
ALBERT LEA     MOCLDY    72  70  94 NE7       30.01S FOG
$$
MNZ078>079-086>088-094>096-230500-
   Southeast Minnesota

CITY           SKY/WX    TMP DP  RH WIND       PRES   REMARKS
ROCHESTER      MOCLDY    71  67  87 N9        30.03S
RED WING       CLEAR     70  66  88 CALM      29.99F
STANTON        PTCLDY    70  67  90 NE5       30.00S
DODGE CENTER   PTCLDY    70  66  88 NE5       30.03R FOG
WINONA         MOCLDY    73  70  88 N5        29.99S
AUSTIN         MOCLDY    72  70  94 NE6       30.01S
PRESTON        CLOUDY    71  71 100 N7        30.02R
$$
ABBREVIATIONS USED IN REMARKS
   TC - TEMPERATURES IN CELSIUS
  WCI - WIND CHILL INDEX
   HX - HEAT INDEX
  VSB - VISIBILITY
$$


USA.gov is the U.S. government's official web portal to all federal, state and local government web resources and services.